Location: Gospiteroda
(50.8889°N, 10.6476°E)
Time: 13:18:12
(UTC+00:00)

Daily predictions for brighter satellites

Satellite Brightness Start Highest point End
(mag) Time Altitude Azimuth Time Altitude Azimuth Time Altitude Azimuth
Meteor 1-27 Rocket 4.3 18:07:47 10° NNW 18:13:16 65° W 18:18:48 10° S
Cosmos 1937 Rocket 3.5 18:09:12 10° NNW 18:14:30 80° ENE 18:19:48 10° SSE
Cosmos 2061 Rocket 4.2 18:08:56 10° SSE 18:15:09 56° E 18:21:26 10° NNE
COSMOS 2428 3.9 18:11:52 10° SSE 18:16:00 21° E 18:20:08 10° NE
Cosmos 1818 4.4 18:12:19 10° S 18:16:52 28° ESE 18:21:26 10° ENE
Cosmos 1726 2.6 18:15:51 10° SE 18:18:09 22° E 18:20:27 10° NE
Cosmos 2233 Rocket 4.1 18:12:47 10° SSE 18:18:43 54° E 18:24:42 10° NNE
Lacrosse 4 Rocket 1.9 18:15:26 10° NNW 18:19:41 50° NE 18:23:54 10° SE
Meteor 2-4 Rocket 3.9 18:13:43 10° N 18:19:42 76° ENE 18:25:37 10° SSE
Cosmos 1943 Rocket 3.6 18:15:33 10° NNW 18:19:56 23° NE 18:24:17 10° E
Cosmos 468 Rocket 4.1 18:15:08 10° SSW 18:20:15 84° WNW 18:25:25 10° NNE
USA 59 Rocket 0.6 18:17:30 10° NNW 18:20:50 38° NE 18:25:07 10° ESE
Cosmos 2292 Rocket 3.5 18:16:22 10° NNW 18:20:52 79° W 18:24:21 10° S
Cosmos 372 Rocket 4.2 18:17:12 10° NNW 18:22:23 76° WSW 18:27:34 10° SSE
ADEOS 3.7 18:19:28 10° SSE 18:24:42 86° WSW 18:29:57 10° NNW
Cosmos 841 Rocket 3.6 18:20:21 10° S 18:25:25 57° ESE 18:30:30 10° NNE
Intercosmos 24 4.5 18:22:26 10° NNW 18:25:56 55° W 18:29:41 10° S
PAYLOAD B 4.3 18:22:33 10° SSE 18:28:05 68° ENE 18:33:41 10° NNW
Cosmos 1328 Rocket 4.1 18:24:43 10° N 18:28:45 38° ENE 18:32:45 10° SE
Meteor 1-4 Rocket 3.5 18:27:36 10° NNE 18:29:34 18° ENE 18:31:20 11° ESE
Aureole 1 Rocket 4.3 18:25:48 10° NW 18:30:12 41° WSW 18:33:42 10° S
USA 308 0.0 18:30:04 10° NW 18:30:55 43° NNE 18:31:36 19° E
Cosmos 1674 3.0 18:28:16 10° N 18:31:24 35° ENE 18:34:29 10° SE
Terra 3.8 18:31:12 10° E 18:33:28 14° NE 18:35:46 10° NNE
CZ-4B DEB 4.3 18:28:13 10° SSE 18:33:44 89° WSW 18:39:17 10° NNW
Cosmos 1743 2.7 18:30:18 10° S 18:33:45 47° E 18:37:12 10° NNE
SeaSat 1 4.3 18:31:00 10° NNE 18:35:25 34° NW 18:39:50 10° WSW
Tsikada Rocket 4.1 18:29:25 10° N 18:35:42 90° W 18:42:02 10° S
Cosmos 2278 Rocket 3.0 18:30:57 10° NNW 18:36:12 37° NE 18:41:07 11° ESE
Cosmos 540 Rocket 4.3 18:32:12 10° SW 18:37:11 55° WNW 18:42:13 10° NNE
NOSS 2-1 (C) 3.7 18:33:54 10° NW 18:37:19 49° NE 18:41:26 12° ESE
Meteor 1-18 Rocket 4.3 18:32:25 10° NNW 18:38:25 83° ENE 18:44:18 10° SSE
Iridium 4 Rocket 2.9 18:36:22 10° N 18:40:38 71° E 18:44:45 10° S
CZ-4B R/B 2.8 18:37:38 10° SSE 18:41:24 89° WSW 18:45:23 10° NNW
CZ-4B R/B 3.2 18:35:58 10° SSE 18:41:24 65° ENE 18:46:46 10° N
Genesis I 2.9 18:38:03 10° SW 18:41:30 85° NW 18:45:01 10° NE
ERS-1 Rocket 4.5 18:39:39 11° E 18:42:58 20° ENE 18:46:32 10° NNE
Cosmos 2016 Rocket 4.3 18:38:34 10° SSW 18:44:39 73° W 18:50:47 10° N
USA 290 3.6 18:42:22 10° N 18:45:07 24° NE 18:47:00 15° ESE
TSX-5 3.3 18:43:00 10° NNW 18:46:09 60° NE 18:48:41 14° SE
CARTOSAT-1 3.5 18:42:57 10° SSE 18:47:11 72° ENE 18:51:26 10° N
SPOT 5 3.8 18:45:10 13° ESE 18:48:40 28° ENE 18:52:33 10° N
SPOT 1/Viking Rocket 4.2 18:43:59 10° S 18:49:06 60° W 18:54:14 10° NNW
NOSS 8 (A) 4.3 18:47:57 10° SW 18:51:54 72° SE 18:55:02 10° NE
ATLAS 2AS CENTAUR R/B 3.8 18:46:54 10° WSW 18:53:54 49° NNW 19:00:39 10° NE
USA 306 4.1 18:52:48 10° SSE 18:54:09 14° SE 18:54:09 14° SE
Okean 3 Rocket 4.5 18:51:35 10° SSE 18:55:26 29° E 18:59:16 10° NNE
ATLAS CENTAUR R/B 4.2 18:51:25 10° WNW 18:55:57 34° SW 19:02:34 10° SSE
USA 215 4.4 18:52:13 10° E 18:56:32 18° ESE 19:00:50 10° SSE
Cosmos 1151 Rocket 4.0 18:52:42 10° NNW 18:56:51 48° W 19:00:55 10° SSW
ARGOS Delta rocket 4.2 18:52:33 10° S 18:57:43 74° W 19:02:38 10° NNW
MOS 1-B 4.3 18:52:44 10° SSE 18:58:31 71° ENE 19:04:17 10° NNW
Okean O Rocket 1.8 18:54:28 10° SSE 18:58:48 56° ENE 19:03:09 10° N
Cosmos 2360 Rocket 2.8 18:53:19 10° SW 18:58:54 60° NW 19:04:30 10° NNE
Cosmos 1340 2.6 18:57:44 10° SSW 19:00:59 69° WNW 19:04:16 10° N
USA 186 2.1 18:59:15 10° S 19:02:26 67° WSW 19:05:40 10° NNW
Resurs 01 Rocket 1.7 18:58:57 10° SSE 19:03:23 80° WSW 19:07:51 10° NNW
GRACE-FO 1 4.4 19:03:48 10° SSE 19:07:18 64° E 19:10:49 10° N
Cosmos 2237 Rocket 3.3 19:04:46 15° SE 19:07:42 21° E 19:11:51 10° NE
GRACE-FO 2 4.4 19:04:12 10° S 19:07:42 65° E 19:11:14 10° N
Cosmos 2322 Rocket 3.5 19:02:28 10° WSW 19:07:56 45° NW 19:13:25 10° NNE
Helios 1A 3.6 19:04:24 10° N 19:08:25 59° WNW 19:12:24 10° SSW
MOS 1 Rocket 4.3 19:06:49 19° ESE 19:09:46 35° ENE 19:14:27 10° N
Cosmos 1814 Rocket 4.2 19:06:40 10° S 19:11:46 49° ESE 19:16:50 10° NNE
ACS3 Solar Sail 1.9 19:05:28 10° SSE 19:11:47 67° ENE 19:18:09 10° N
NOSS 2-1 (E) 3.4 19:09:43 10° NW 19:13:24 87° NE 19:16:32 21° SE
Cosmos 44 Rocket 3.9 19:08:55 10° NW 19:13:33 52° WSW 19:17:37 13° SSE
BlueWalker 3 1.9 19:09:49 10° WNW 19:13:34 73° SSW 19:15:32 26° SE
Cosmos 1515 Rocket 3.7 19:10:36 10° N 19:14:50 51° ENE 19:17:32 21° SE
Okean-O 2.9 19:12:12 20° SE 19:14:59 49° ENE 19:19:15 10° N
Cosmos 2333 Rocket 3.2 19:10:17 10° SW 19:15:53 51° NW 19:21:32 10° NNE
Cosmos 2219 Rocket 2.5 19:14:03 10° SW 19:19:44 73° WNW 19:25:26 10° NNE
Sich 1 4.3 19:20:26 21° E 19:20:29 21° E 19:23:44 10° NE
MetOp-B 4.4 19:17:45 20° SE 19:21:20 52° ENE 19:26:33 10° N
NOSS 2-1 (D) 3.5 19:19:46 10° NW 19:23:26 76° SW 19:26:15 23° SE
CSL-04 Rocket 3.9 19:18:16 10° S 19:23:38 69° WSW 19:28:58 10° NNW
BREEZE-M DEB (TANK) 2.1 19:22:57 10° WSW 19:24:58 48° SSE 19:25:16 44° SE
Cosmos 1842 3.1 19:21:38 10° NNW 19:25:16 80° W 19:27:54 18° S
SL-16 R/B 4.5 19:23:45 10° W 19:28:28 26° NW 19:33:12 10° NNE
Cosmos 1766 Rocket 3.8 19:28:31 10° SSW 19:32:51 72° WNW 19:37:14 10° N
USA 267 3.5 19:29:00 19° E 19:33:49 65° NNE 19:40:19 10° WNW
DELTA 2 DEB (DPAF) 4.2 19:30:25 10° NNE 19:34:26 44° E 19:36:01 30° SSE
Cosmos 1500 Rocket 4.3 19:34:22 31° ESE 19:34:50 32° E 19:38:43 10° NNE
SWARM A 4.3 19:34:27 36° SSE 19:35:40 62° E 19:39:10 10° N
Cosmos 1980 4.2 19:30:58 10° S 19:36:05 36° ESE 19:41:15 10° NE
IRS-1C Rocket 4.4 19:33:37 27° SE 19:36:11 50° ENE 19:41:17 10° N
Cosmos 2369 Rocket 3.9 19:32:36 10° NNW 19:36:56 21° NE 19:39:53 15° ENE
BREEZE-M R/B 4.1 19:33:33 10° W 19:38:09 74° S 19:49:01 20° ESE
Meteor 1-13 Rocket 4.3 19:33:22 10° N 19:39:19 73° ENE 19:43:00 24° SSE
Cosmos 2322 3.7 19:34:51 10° SSW 19:40:30 87° WNW 19:46:13 10° NNE
USA 32 4.3 19:36:30 10° N 19:41:36 50° ENE 19:43:41 32° SE
USA 276 1.9 19:38:58 10° W 19:41:31 63° SW 19:41:31 63° SW
Cosmos 1400 Rocket 4.5 19:38:41 10° NNW 19:42:07 31° W 19:45:30 10° SSW
Spot 2 Rocket 4.1 19:41:51 31° ESE 19:43:30 40° ENE 19:48:11 10° N
MOS 1 4.3 19:42:10 20° SSE 19:46:16 88° WSW 19:52:01 10° NNW
PSLV R/B 3.9 19:44:58 28° S 19:46:43 64° WSW 19:50:17 10° NNW
Cosmos 1707 3.2 19:43:18 10° NNW 19:46:47 53° W 19:48:44 23° SSW
Cosmos 1315 Rocket 2.8 19:43:35 10° N 19:47:31 58° ENE 19:48:16 48° ESE
Cosmos 1428 Rocket 4.4 19:42:12 10° N 19:48:18 64° ENE 19:51:28 29° SSE
CZ-4 R/B 4.0 19:46:10 10° SW 19:48:46 18° W 19:51:25 10° NW
Meteor 2-10 4.1 19:44:16 14° S 19:49:03 65° E 19:54:42 10° NNE
In-Cosmos 22 4.2 19:43:44 10° NNW 19:49:32 89° ENE 19:53:04 24° SSE
Cosmos 1733 2.7 19:49:19 57° SSE 19:49:54 74° E 19:53:22 10° NNE
Cosmos 1570 Rocket 4.3 19:49:52 33° SSE 19:51:32 43° ESE 19:56:30 10° NE
Cosmos 1408 Rocket 3.5 19:50:27 39° SSE 19:51:50 59° E 19:56:10 10° NNE
Cosmos 1536 2.7 19:55:07 23° SSW 19:57:24 77° W 20:01:15 10° N
Lacrosse 4 Rocket 3.3 19:54:04 10° NW 19:57:40 25° WSW 20:00:26 14° SSW
COSMOS 2428 2.8 19:53:53 10° SW 19:59:36 78° WNW 20:05:23 10° NNE
Cosmos 1818 3.9 19:54:36 10° SW 20:00:03 67° NW 20:05:33 10° NE
Nadezhda 4 Rocket 4.0 19:54:57 10° NNW 20:01:13 80° W 20:05:35 21° S
Cosmos 2195 Rocket 4.4 19:55:06 10° N 20:01:14 71° ENE 20:03:58 34° SSE
Meteor 1-23 Rocket 4.2 19:55:41 10° N 20:01:18 67° ENE 20:03:21 39° SE
Meteor 1-4 Rocket 4.2 19:59:17 10° NW 20:01:21 20° W 20:02:22 16° WSW
Cosmos 1356 Rocket 4.3 19:57:21 10° NNW 20:01:22 46° W 20:03:51 21° SSW
Cosmos 1092 Rocket 4.1 19:57:06 10° N 20:03:23 62° ENE 20:05:52 37° SE
Cosmos 1943 Rocket 2.1 19:58:51 10° NNW 20:04:25 89° SW 20:06:28 40° SSE
SL-16 R/B 4.2 20:07:18 13° ENE 20:07:18 13° ENE 20:08:19 10° ENE
SL-14 R/B 3.3 20:05:34 10° N 20:09:03 58° NE 20:09:03 58° NE
Cosmos 2026 Rocket 3.9 20:03:53 10° N 20:10:11 70° ENE 20:12:32 40° SSE
Terra 1.7 20:09:10 52° SE 20:10:17 76° ENE 20:15:00 10° NNW
USA 59 Rocket 1.2 20:06:43 10° WNW 20:10:20 36° SW 20:11:54 28° SSW
Cosmos 1464 Rocket 4.2 20:06:15 10° SSW 20:12:32 73° WNW 20:18:55 10° N
Cosmos 158 Rocket 3.8 20:13:21 54° ESE 20:13:21 54° ESE 20:18:05 10° NNE
Cosmos 1805 Rocket 3.4 20:14:27 65° E 20:14:28 65° E 20:18:46 10° NNE
Meteor 1-11 Rocket 3.7 20:09:43 15° SSW 20:14:32 87° W 20:20:08 10° NNE
CRYOSAT 2 4.2 20:09:42 10° N 20:14:38 83° E 20:16:10 45° S
Ariane Rocket 3.0 20:14:46 52° ESE 20:15:43 62° ENE 20:20:44 10° N
Cosmos 1125 Rocket 3.6 20:11:53 10° NNW 20:17:03 70° WSW 20:18:45 42° S
SPOT 3 Rocket 3.6 20:17:15 52° ESE 20:18:13 63° ENE 20:23:19 10° N
Cosmos 1634 Rocket 4.2 20:17:05 43° SE 20:18:32 52° E 20:24:38 10° NNE
USA 290 4.0 20:16:41 10° NW 20:19:29 26° WSW 20:19:43 26° WSW
Cosmos 2278 Rocket 2.8 20:15:01 10° NW 20:20:28 49° WSW 20:22:57 30° SSW
Cosmos 839 Rocket 4.4 20:12:07 10° SSW 20:20:43 66° ESE 20:27:35 10° NE
ERS-1 Rocket 3.0 20:19:35 44° S 20:21:10 77° WSW 20:26:13 10° NNW
Meteor 2-9 Rocket 4.0 20:20:43 27° SSW 20:23:41 85° WNW 20:29:08 10° NNE
BREEZE-M DEB (TANK) 4.2 20:20:12 10° W 20:23:43 74° S 20:26:06 41° ESE
Cosmos 1862 Rocket 4.4 20:20:24 10° N 20:24:00 38° NE 20:24:00 38° NE
SPOT 5 3.7 20:24:19 26° SSW 20:26:32 42° W 20:30:54 10° NNW
Cosmos 1707 Rocket 4.0 20:25:31 10° N 20:29:24 48° NE 20:29:24 48° NE
Cosmos 2034 Rocket 4.1 20:26:34 18° SSW 20:31:18 76° WNW 20:37:30 10° N
Celestis-02/Orion 38 4.4 20:28:16 10° NE 20:33:26 71° ESE 20:34:00 64° SSE
Cosmos 1627 Rocket 4.5 20:28:40 10° N 20:35:01 83° W 20:37:11 44° S
Okean O Rocket 4.0 20:32:11 10° SW 20:35:24 20° W 20:38:40 10° NW
Cosmos 2208 Rocket 3.9 20:35:48 69° SSE 20:36:14 73° ESE 20:41:34 10° NNE
NOSS 0 Rocket 4.2 20:34:01 10° SW 20:40:14 70° NW 20:46:31 10° NNE
USA 215 3.2 20:34:05 10° ENE 20:40:32 58° SE 20:46:58 10° SW
Cosmos 1656 Rocket 3.8 20:40:10 10° NNW 20:45:48 59° NE 20:46:20 56° E
ATLAS 2AS CENTAUR R/B 4.4 20:40:20 10° WNW 20:46:25 29° N 20:52:18 10° NE
Meteor 1-21 4.2 20:40:53 10° NNW 20:46:38 83° W 20:47:41 61° S
Cosmos 2228 Rocket 3.3 20:42:24 10° N 20:46:31 69° NNE 20:46:31 69° NNE
Meteor 2-12 Rocket 4.4 20:41:52 10° NNW 20:48:03 81° W 20:49:33 54° S
BlueWalker 3 4.3 20:48:27 10° W 20:49:46 16° WSW 20:49:46 16° WSW
Cosmos 2237 Rocket 2.3 20:46:17 14° SW 20:51:10 75° WNW 20:56:49 10° NNE
Cosmos 2297 3.8 20:47:52 10° NNW 20:53:28 60° NE 20:53:48 59° ENE
Cosmos 1805 4.5 20:55:19 38° NW 20:55:19 38° NW 20:58:07 10° N
Aureole 3 Rocket 4.4 20:47:44 12° SSW 20:54:41 60° WNW 21:00:01 10° N
ARIANE 5 R/B 4.3 20:56:43 23° NE 20:56:43 23° NE 20:59:15 10° N
ACS3 Solar Sail 3.6 20:51:05 10° SW 20:56:22 27° W 21:01:42 10° NNW
Sich 1 3.9 20:57:04 42° W 20:57:35 44° WNW 21:01:43 10° N
CZ-4C R/B 4.3 20:55:33 10° N 20:58:28 44° NNW 20:58:28 44° NNW
Cosmos 2279 Rocket 3.8 21:06:50 74° SE 21:07:14 78° E 21:13:29 10° NNE
NOSS 3-3 (C) 4.3 21:09:29 49° ENE 21:09:29 49° ENE 21:14:20 10° NE
BREEZE-M DEB (TANK) 3.3 20:57:14 10° W 21:10:38 74° SSW 21:10:46 74° S
USA 267 3.2 21:16:21 63° S 21:16:52 66° SW 21:23:25 10° WNW
Cosmos 2369 Rocket 2.2 21:16:10 10° NNW 21:21:39 75° NNE 21:21:39 75° NNE
NOSS 3-3 (A) 3.9 21:25:46 71° NE 21:25:46 71° NE 21:31:36 10° NE
SL-08 ROCKET BODY 4.4 21:27:30 10° N 21:33:33 81° NE 21:33:33 81° NE
Cosmos 1607 4.4 21:44:29 51° ENE 21:44:29 51° ENE 21:49:13 10° NE
Cosmos 1943 Rocket 4.2 21:44:01 10° WNW 21:47:20 16° W 21:47:58 16° WSW
NOSS 3-4 (A) 3.7 21:41:03 10° NW 21:47:47 80° SW 21:47:59 79° SSW
SL-16 R/B 2.7 21:49:08 56° NNE 21:49:08 56° NNE 21:53:34 10° NNE
NOSS 3-4 (C) 3.7 21:41:09 10° NW 21:47:53 81° SW 21:48:05 80° SSW
Terra 4.1 21:47:52 16° W 21:48:24 16° W 21:51:19 10° NW
Meteor 2-5 Rocket 4.5 21:48:14 10° N 21:53:14 47° NE 21:53:14 47° NE
Cosmos 2266 Rocket 4.1 21:49:33 10° NNW 21:55:29 70° WNW 21:55:29 70° WNW
Cosmos 2344 4.4 21:57:46 10° NW 22:05:19 52° NNE 22:10:20 28° E
Meteor 1-24 Rocket 4.3 22:09:50 10° N 22:14:47 58° NNE 22:14:47 58° NNE
Cosmos 1655 Rocket 4.2 22:10:13 10° NNW 22:15:58 69° NW 22:15:58 69° NW
USA 215 3.4 22:17:11 10° ENE 22:23:41 69° NNW 22:30:11 10° WSW
Cosmos 2237 Rocket 4.5 22:32:03 10° W 22:36:12 21° NW 22:40:22 10° NNE
ATLAS 2AS CENTAUR R/B 4.0 22:32:55 10° NW 22:39:14 35° NNE 22:43:40 17° ENE
Cosmos 2369 Rocket 4.2 23:01:08 10° NW 23:03:25 18° WNW 23:03:25 18° WNW
ATLAS CENTAUR R/B 4.3 23:11:25 14° N 23:11:25 14° N 23:12:26 10° NNE
Cosmos 1980 Rocket 4.1 23:25:09 10° NNW 23:29:43 25° NE 23:31:54 20° ENE
Cosmos 1745 Rocket 4.4 23:24:07 10° N 23:29:08 59° NNW 23:29:08 59° NNW
SL-16 R/B 4.2 23:30:58 19° WNW 23:32:49 23° NW 23:37:15 10° NNE
CZ-2C R/B 4.3 23:40:58 25° ENE 23:41:17 25° ENE 23:45:25 10° N
Cosmos 2315 Rocket 4.3 23:54:43 62° NE 23:54:43 62° NE 23:59:53 10° NNE
